Location: Newark
(54.2500°N, 9.1833°E)
Time: 00:06:54
(UTC+00:00)

N. Korean satellite - Visible Passes

Search period start: 22 November 2019 00:00
Search period end: 02 December 2019 00:00
Orbit: 456 x 506 km, 97.2° (Epoch: 21 November)

Date Brightness Start Highest point End Pass type
(mag) Time Alt. Az. Time Alt. Az. Time Alt. Az.
22 Nov 8.6 04:50:38 10° NNE 04:54:00 32° E 04:57:19 10° SSE visible
22 Nov 9.0 17:06:00 10° SSW 17:09:10 26° W 17:12:22 10° NW visible
23 Nov 9.6 04:25:44 10° NE 04:28:24 19° E 04:31:03 10° SE visible
23 Nov 6.8 05:58:28 10° N 06:02:05 50° WNW 06:05:38 10° SW visible
23 Nov 7.8 16:40:03 10° S 16:43:37 47° W 16:47:15 10° NNW visible
24 Nov 10.2 04:01:48 10° ENE 04:02:43 11° E 04:03:36 10° E visible
24 Nov 6.6 05:32:59 10° NNE 05:36:43 89° ESE 05:40:23 10° SSW visible
24 Nov 6.7 16:14:28 10° SSE 16:18:10 87° WSW 16:21:56 10° NNW visible
24 Nov 10.3 17:51:18 10° W 17:52:11 11° W 17:53:03 10° WNW visible
25 Nov 7.7 05:07:39 10° NNE 05:11:16 48° E 05:14:49 10° S visible
25 Nov 6.8 15:49:12 10° SSE 15:52:48 51° ENE 15:56:27 10° N visible
25 Nov 9.7 17:23:50 10° SW 17:26:29 18° W 17:29:09 10° NW visible
26 Nov 8.9 04:42:32 10° NE 04:45:44 27° E 04:48:51 10° SSE visible
26 Nov 7.3 06:15:49 10° N 06:19:11 34° WNW 06:22:30 10° SW visible
26 Nov 8.7 16:57:32 10° SSW 17:00:53 31° W 17:04:16 10° NNW visible
27 Nov 9.8 04:17:48 10° NE 04:20:05 16° E 04:22:20 10° SE visible
27 Nov 6.6 05:50:13 10° N 05:53:52 60° WNW 05:57:27 10° SSW visible
27 Nov 7.4 16:31:42 10° S 16:35:21 57° WSW 16:39:04 10° NNW visible
28 Nov 6.8 05:24:46 10° NNE 05:28:28 74° ESE 05:32:05 10° S visible
28 Nov 6.6 16:06:14 10° SSE 16:09:56 78° ENE 16:13:41 10° NNW visible
28 Nov 10.1 17:42:06 10° WSW 17:43:50 13° W 17:45:35 10° WNW visible
29 Nov 8.1 04:59:30 10° NNE 05:02:59 39° E 05:06:23 10° SSE visible
29 Nov 7.0 15:41:03 10° SE 15:44:35 43° ENE 15:48:08 10° N visible
29 Nov 9.4 17:15:13 10° SW 17:18:09 22° W 17:21:07 10° NW visible
30 Nov 9.2 04:34:27 10° NE 04:37:23 22° E 04:40:17 10° SE visible
30 Nov 7.0 06:07:29 10° N 06:10:57 40° WNW 06:14:20 10° SW visible
30 Nov 8.3 16:49:05 10° SSW 16:52:34 38° W 16:56:05 10° NNW visible
01 Dec 10.0 04:09:58 10° ENE 04:11:42 13° E 04:13:25 10° ESE visible
01 Dec 6.5 05:41:55 10° N 05:45:36 73° WNW 05:49:11 10° SSW visible
01 Dec 7.0 16:23:22 10° S 16:27:04 70° WSW 16:30:49 10° NNW visible
